Weather History for Saranac Lake, NY

Change the Weather History Date:

Sunday, July 22, 2012

  Actual Average Record
Temperature  
Mean Temperature 69 °F 64 °F  
Max Temperature 82 °F 76 °F 91 °F (1955)
Min Temperature 55 °F 51 °F 36 °F (1992)
Degree Days  
Heating Degree Days 0 3  
Month to date heating degree days 66  
Since 1 June heating degree days 250  
Since 1 July heating degree days 66  
Cooling Degree Days 4 1  
Month to date cooling degree days 41 37  
Year to date cooling degree days 98 66  
Since 1 June cooling degree days 82 63  
Growing Degree Days 18 (Base 50)    
Moisture  
Dew Point 58 °F    
Average Humidity 71    
Maximum Humidity 97    
Minimum Humidity 45    
Precipitation  
Precipitation 0.00 in 0.14 in 1.48 in (1980)
Month to date precipitation 2.81 2.97  
Year to date precipitation 17.76 19.17  
Sea Level Pressure  
Sea Level Pressure 30.06 in    
Wind  
Wind Speed 5 mph (SW)    
Max Wind Speed 17 mph    
Max Gust Speed 22 mph    
Visibility 10 miles    
Events      
T = Trace of Precipitation, MM = Missing Value Source: NWS Daily Summary

Daily Weather History Graph

Daily Weather History Graph

Search for Another Location

Airport:

Trip Planner

Search our weather history database for the weather conditions in past years. The results will help you decide how hot, cold, wet, or windy it might be!

Date:

Astronomy

Jul. 22, 2012 Rise Set
Actual Time 5:33 AM EDT 8:32 PM EDT
Civil Twilight 4:59 AM EDT 9:06 PM EDT
Nautical Twilight 4:15 AM EDT 9:50 PM EDT
Astronomical Twilight 3:22 AM EDT 10:42 PM EDT
Moon 9:27 AM EDT (7/22) 10:01 PM EDT (7/22)
Length of Visible Light 16h 07m
Length of Day
14h 58m
Waxing Crescent, 13% of the Moon is Illuminated
Jul 22
Waxing Crescent
Jul 26
First Quarter
Aug 1
Full
Aug 9
Last Quarter
Aug 17
New

Hourly Weather History & Observations

Time (EDT) Temp. Heat Index Dew Point Humidity Pressure Visibility Wind Dir Wind Speed Gust Speed Precip Events Conditions
12:51 AM 60.1 °F - 55.0 °F 83% 30.07 in 10.0 mi SW 3.5 mph - N/A   Overcast
1:51 AM 61.0 °F - 55.0 °F 81% 30.06 in 10.0 mi Calm Calm - N/A   Overcast
2:51 AM 61.0 °F - 55.0 °F 81% 30.05 in 10.0 mi SW 3.5 mph - N/A   Overcast
3:51 AM 57.9 °F - 54.0 °F 87% 30.06 in 10.0 mi Calm Calm - N/A   Mostly Cloudy
4:51 AM 57.0 °F - 54.0 °F 89% 30.06 in 10.0 mi Calm Calm - N/A   Partly Cloudy
5:51 AM 55.9 °F - 54.0 °F 93% 30.07 in 10.0 mi Calm Calm - N/A   Clear
6:51 AM 59.0 °F - 55.0 °F 87% 30.09 in 10.0 mi Calm Calm - N/A   Scattered Clouds
7:51 AM 64.9 °F - 57.0 °F 75% 30.09 in 10.0 mi SW 8.1 mph - N/A   Clear
8:51 AM 69.1 °F - 59.0 °F 70% 30.10 in 10.0 mi SW 9.2 mph - N/A   Mostly Cloudy
9:51 AM 71.1 °F - 59.0 °F 66% 30.09 in 10.0 mi WSW 8.1 mph - N/A   Scattered Clouds
10:51 AM 73.9 °F - 59.0 °F 59% 30.09 in 10.0 mi WSW 8.1 mph 18.4 mph N/A   Clear
11:51 AM 77.0 °F - 57.9 °F 52% 30.08 in 10.0 mi SW 8.1 mph 17.3 mph N/A   Partly Cloudy
12:51 PM 80.1 °F 80.6 °F 57.9 °F 47% 30.06 in 10.0 mi SW 12.7 mph 19.6 mph N/A   Mostly Cloudy
1:51 PM 79.0 °F - 57.0 °F 47% 30.06 in 10.0 mi SW 11.5 mph - N/A   Mostly Cloudy
2:51 PM 80.1 °F 80.7 °F 59.0 °F 48% 30.05 in 10.0 mi SW 11.5 mph 20.7 mph N/A   Mostly Cloudy
3:51 PM 81.0 °F 81.6 °F 60.1 °F 49% 30.05 in 10.0 mi WSW 12.7 mph 19.6 mph N/A   Scattered Clouds
4:51 PM 79.0 °F - 61.0 °F 54% 30.05 in 10.0 mi WSW 8.1 mph - N/A   Partly Cloudy
5:51 PM 78.1 °F - 60.1 °F 54% 30.05 in 10.0 mi WSW 4.6 mph - N/A   Mostly Cloudy
6:51 PM 78.1 °F - 61.0 °F 56% 30.04 in 10.0 mi SW 8.1 mph - N/A   Mostly Cloudy
7:51 PM 75.0 °F - 60.1 °F 60% 30.03 in 10.0 mi SW 6.9 mph - N/A   Clear
8:51 PM 71.1 °F - 61.0 °F 70% 30.04 in 10.0 mi SW 3.5 mph - N/A   Scattered Clouds
9:51 PM 66.9 °F - 61.0 °F 81% 30.05 in 10.0 mi Calm Calm - N/A   Partly Cloudy
10:51 PM 63.0 °F - 60.1 °F 90% 30.04 in 10.0 mi Calm Calm - N/A   Clear
11:51 PM 60.1 °F - 59.0 °F 96% 30.04 in 9.0 mi Calm Calm - N/A   Scattered Clouds